Regional Weather Roundup
Issued by NWS Jackson, KY

Home | Current Version | Previous Version | Text Only | Print | Product List | Glossary On
Versions: 1 2 3 4 5 6 7 8 9 10 11 12 13 14 15 16 17 18 19 20 21 22 23 24 25 26 27 28 29 30 31 32 33 34 35 36 37 38 39 40 41 42 43 44 45 46 47 48 49 50
000
ASUS43 KJKL 230419
RWRJKL

EAST KENTUCKY HOURLY WEATHER ROUNDUP
NATIONAL WEATHER SERVICE JACKSON KY
1100 PM EST MON DEC 22 2014

NOTE: "FAIR" INDICATES FEW OR NO CLOUDS BELOW 12,000 FEET WITH
NO SIGNIFICANT WEATHER AND/OR OBSTRUCTIONS TO VISIBILITY.

* THESE REPORTS ARE NOT UNDER NWS QUALITY CONTROL AND MAY NOT
  REPORT WEATHER SUCH AS PRECIPITATION AND FOG.

KYZ079-080-083-085-087-088-110-112-115-119-120-230500
...EASTERN KENTUCKY...

CITY           SKY/WX    TMP DP  RH WIND       PRES   REMARKS
JACKSON        PTCLDY    52  40  63 SE8       29.79F
LONDON         CLOUDY    52  44  74 SE3       29.78S
SOMERSET*      CLOUDY    52  43  71 S3        29.77S
MONTICELLO*    MOCLDY    54  49  83 S15G21    29.79S
MIDDLESBORO*   DRIZZLE   48  47  97 CALM      29.83S
HARLAN APT*    CLOUDY    52  41  66 CALM      29.83S
HAZARD APT*    PTCLDY    50  41  71 CALM      29.80S
BLACK MTN*       N/A     45  43  93 S2          N/A
PIKEVILLE APT* PTCLDY    50  39  66 SE8G16    29.81F
BIG SANDY*     MOCLDY    51  39  64 SE7       29.82F
MOREHEAD APT*  MOCLDY    52  41  66 VRB7G14   29.78F
ASHLAND*       CLEAR     39  37  93 SE7       29.79F WCI  34
$$

KYZ035-036-041-042-044-050-067-078-099-230500
...CENTRAL KENTUCKY...

CITY           SKY/WX    TMP DP  RH WIND       PRES   REMARKS
MT STERLING*   MOCLDY    50  43  76 S9        29.77F
FLEMING/MASON* CLEAR     46  39  76 SE9       29.77F
DANVILLE*      CLOUDY    52  45  76 S10       29.75S
RICHMOND*      CLOUDY    54  43  66 SE13      29.75F
LEXINGTON      CLOUDY    52  44  74 SE10      29.73F
FRANKFORT      CLOUDY    53  44  71 SE8       29.71S
$$

KYZ091>093-OHZ055-061-077-WVZ005-015-034-035-042-230500
...SOUTHERN OHIO/WEST VIRGINIA...

CITY           SKY/WX    TMP DP  RH WIND       PRES   REMARKS
COVINGTON      LGT RAIN  47  39  74 S6        29.73R
COLUMBUS       CLOUDY    46  36  68 E12       29.81F
DAYTON         CLOUDY    46  38  73 SE13      29.75S
WILMINGTON     MOCLDY    44  37  76 SE10      29.75F
HUNTINGTON     MOCLDY    49  39  68 CALM      29.82S
CHARLESTON     CLOUDY    48  37  65 SE8       29.86F
PINEVILLE*     CLOUDY    46  41  84 MISG      29.96F
BECKLEY        LGT RAIN  38  35  89 SE12G26   29.92F WCI  30
BLUEFIELD      CLOUDY    37  33  85 E8        29.94F FOG     WCI  31
$$

VAZ002-007-008-TNZ017-027-036-066-071-230500
...SOUTHWEST VIRGINIA/EAST TENNESSEE...

CITY           SKY/WX    TMP DP  RH WIND       PRES   REMARKS
WISE*          MOCLDY    46  37  71 S12G17    29.87F
JONESVILLE*    CLOUDY    50  41  71 E6        29.86F
ABINGDON*      MOCLDY    43  39  86 E14       29.90S
BRISTOL        MOCLDY    43  38  82 CALM      29.88S
KNOXVILLE      LGT RAIN  49  46  90 NW12      29.83R
OAK RIDGE      HVY RAIN  49  47  93 CALM      29.86S VSB 1
CROSSVILLE     LGT RAIN  49  45  86 S7G17     29.82R
NASHVILLE      CLOUDY    52  49  89 S14       29.74R
$$

...KEY TO REMARKS...
VSB - VISIBILITY IN MILES
WCI - WIND CHILL INDEX
HX  - HEAT INDEX

$$


USA.gov is the U.S. government's official web portal to all federal, state and local government web resources and services.